Appleton, WI

2:28 PM CDT on October 22, 2017 (GMT -0500)
Outagamie County Regional

Weather History for KATW - April, 2012

Change the Weather History Date:

Sunday, April 22, 2012

  Actual Average Record
Temperature  
Mean Temperature 42 °F -  
Max Temperature 53 °F 60 °F 89 °F (1980)
Min Temperature 32 °F 36 °F 24 °F (1986)
Degree Days  
Heating Degree Days 22    
Moisture  
Dew Point 27 °F    
Average Humidity 62    
Maximum Humidity 93    
Minimum Humidity 30    
Precipitation  
Precipitation 0.00 in - - ()
Sea Level Pressure  
Sea Level Pressure 30.11 in    
Wind  
Wind Speed 6 mph (NE)    
Max Wind Speed 15 mph    
Max Gust Speed 17 mph    
Visibility 10 miles    
Events      
Averages and records for this station are not official NWS values.
T = Trace of Precipitation, MM = Missing Value Source: NWS Daily Summary

Daily Weather History Graph

Daily Weather History Graph

Search for Another Location

Airport or City:

Trip Planner

Search our weather history database for the weather conditions in past years. The results will help you decide how hot, cold, wet, or windy it might be!

Date:

Astronomy

Apr. 22, 2012 Rise Set
Actual Time 5:58 AM CDT 7:47 PM CDT
Civil Twilight 5:27 AM CDT 8:18 PM CDT
Nautical Twilight 4:49 AM CDT 8:56 PM CDT
Astronomical Twilight 4:08 AM CDT 9:37 PM CDT
Moon 6:25 AM CDT 9:28 PM CDT
Length of Visible Light 14h 51m
Length of Day
13h 49m
New Moon, 2% of the Moon is Illuminated
Apr 22
New Moon
Apr 29
First Quarter
May 5
Full
May 12
Last Quarter
May 20
New

Hourly Weather History & Observations

Time (CDT) Temp. Windchill Dew Point Humidity Pressure Visibility Wind Dir Wind Speed Gust Speed Precip Events Conditions
12:15 AM 37.4 °F 33.8 °F 23.0 °F 56% 30.06 in 10.0 mi ENE 4.6 mph - N/A   Clear
12:55 AM 37.4 °F 32.8 °F 21.2 °F 52% 30.05 in 10.0 mi NE 5.8 mph - N/A   Clear
1:15 AM 33.8 °F 27.7 °F 23.0 °F 65% 30.05 in 10.0 mi NNE 6.9 mph - N/A   Clear
1:35 AM 33.8 °F 27.7 °F 24.8 °F 70% 30.05 in 10.0 mi NNE 6.9 mph - N/A   Clear
1:55 AM 33.8 °F 27.7 °F 23.0 °F 65% 30.05 in 10.0 mi NNE 6.9 mph - N/A   Clear
2:15 AM 33.8 °F 27.0 °F 24.8 °F 70% 30.05 in 10.0 mi NNE 8.1 mph - N/A   Clear
2:35 AM 33.8 °F 27.0 °F 26.6 °F 75% 30.05 in 10.0 mi NNE 8.1 mph - N/A   Clear
2:55 AM 33.8 °F 27.7 °F 26.6 °F 75% 30.05 in 10.0 mi NNE 6.9 mph - N/A   Clear
3:35 AM 35.6 °F 29.9 °F 28.4 °F 75% 30.06 in 10.0 mi ENE 6.9 mph - N/A   Clear
3:55 AM 35.6 °F 31.7 °F 28.4 °F 75% 30.07 in 10.0 mi NE 4.6 mph - N/A   Clear
4:15 AM 33.8 °F 28.6 °F 28.4 °F 81% 30.07 in 10.0 mi NE 5.8 mph - N/A   Clear
4:35 AM 33.8 °F 27.7 °F 28.4 °F 81% 30.07 in 10.0 mi NE 6.9 mph - N/A   Clear
4:55 AM 32.0 °F 26.4 °F 28.4 °F 87% 30.08 in 10.0 mi NE 5.8 mph - N/A   Clear
5:20 AM 35.6 °F 30.7 °F 28.4 °F 75% 30.08 in 10.0 mi NE 5.8 mph - N/A   Scattered Clouds
5:45 AM 33.8 °F 28.6 °F 30.2 °F 87% 30.09 in 10.0 mi NE 5.8 mph - N/A   Mostly Cloudy
6:45 AM 32.0 °F 25.6 °F 30.2 °F 93% 30.12 in 10.0 mi NNE 6.9 mph - N/A   Mostly Cloudy
7:45 AM 35.6 °F 29.2 °F 32.0 °F 87% 30.15 in 10.0 mi NNE 8.1 mph - N/A   Mostly Cloudy
8:45 AM 41.0 °F 35.2 °F 30.2 °F 65% 30.16 in 10.0 mi NE 9.2 mph - N/A   Mostly Cloudy
9:45 AM 46.4 °F 42.4 °F 26.6 °F 46% 30.17 in 10.0 mi NE 8.1 mph - N/A   Mostly Cloudy
10:45 AM 46.4 °F 41.9 °F 28.4 °F 50% 30.18 in 10.0 mi NNE 9.2 mph - N/A   Mostly Cloudy
11:45 AM 48.2 °F - 24.8 °F 40% 30.17 in 10.0 mi NNE 11.5 mph - N/A   Mostly Cloudy
1:45 PM 51.8 °F - 26.6 °F 38% 30.15 in 10.0 mi North 10.4 mph 17.3 mph N/A   Scattered Clouds
3:45 PM 53.6 °F - 24.8 °F 33% 30.14 in 10.0 mi NNE 11.5 mph - N/A   Scattered Clouds
4:45 PM 53.6 °F - 24.8 °F 33% 30.13 in 10.0 mi ENE 15.0 mph - N/A   Partly Cloudy
6:45 PM 51.8 °F - 21.2 °F 30% 30.13 in 10.0 mi East 4.6 mph - N/A   Clear
7:45 PM 50.0 °F - 21.2 °F 32% 30.13 in 10.0 mi East 5.8 mph - N/A   Partly Cloudy
8:45 PM 44.6 °F 42.2 °F 26.6 °F 49% 30.14 in 10.0 mi ESE 4.6 mph - N/A   Partly Cloudy
9:45 PM 44.6 °F - 26.6 °F 49% 30.14 in 10.0 mi Calm Calm - N/A   Partly Cloudy
10:45 PM 41.0 °F - 28.4 °F 61% 30.14 in 10.0 mi Calm Calm - N/A   Clear
10:55 PM 41.0 °F - 28.4 °F 61% 30.14 in 10.0 mi Calm Calm - N/A   Clear
11:55 PM 35.6 °F 31.7 °F 30.2 °F 81% 30.14 in 10.0 mi West 4.6 mph - N/A   Clear